• In Uzbekistan
  • List of Countries
  • For 7 days
  • Water Temperature
  • Satellite Maps
  • Weather Map
  • Weather Widgets
  • user-avatar
    Login

    Hourly Weather Banat

    Today, 11 December, Monday

    Time Temperature Precipitation Wind Pressure Humidity
    00:00 +18°C° 0 mm 1 mps 739 mmHg 26%
    01:00 +18°C° 0 mm 1 mps 739 mmHg 28%
    02:00 +18°C° 0 mm 1 mps 739 mmHg 29%
    03:00 +16°C° 0 mm 1 mps 739 mmHg 30%
    04:00 +15°C° 0 mm 0 mps 739 mmHg 31%
    05:00 +15°C° 0 mm 0 mps 738 mmHg 32%
    06:00 +18°C° 0 mm 1 mps 739 mmHg 33%
    07:00 +18°C° 0 mm 1 mps 739 mmHg 33%
    08:00 +19°C° 0 mm 1 mps 740 mmHg 34%
    09:00 +21°C° 0 mm 1 mps 740 mmHg 30%
    10:00 +23°C° 0 mm 1 mps 740 mmHg 27%
    11:00 +25°C° 0 mm 1 mps 740 mmHg 23%
    12:00 +24°C° 0 mm 1 mps 739 mmHg 23%
    13:00 +24°C° 0 mm 2 mps 739 mmHg 23%
    14:00 +24°C° 0 mm 2 mps 738 mmHg 24%
    15:00 +23°C° 0.1 mm 2 mps 738 mmHg 28%
    16:00 +20°C° 0.1 mm 3 mps 738 mmHg 33%
    17:00 +19°C° 0.1 mm 3 mps 738 mmHg 38%
    18:00 +18°C° 0.3 mm 3 mps 738 mmHg 46%
    19:00 +18°C° 0.3 mm 3 mps 739 mmHg 54%
    20:00 +17°C° 0.3 mm 4 mps 739 mmHg 63%
    21:00 +17°C° 0.5 mm 3 mps 739 mmHg 66%
    22:00 +17°C° 0.5 mm 3 mps 739 mmHg 69%
    23:00 +17°C° 0.5 mm 3 mps 739 mmHg 73%

    Tomorrow, 12 December, Tuesday

    Time Temperature Precipitation Wind Pressure Humidity
    00:00 +17°C° 0.6 mm 4 mps 739 mmHg 73%
    01:00 +15°C° 0.6 mm 4 mps 739 mmHg 73%
    02:00 +15°C° 0.6 mm 4 mps 739 mmHg 73%
    03:00 +15°C° 0.1 mm 4 mps 739 mmHg 75%
    04:00 +16°C° 0.1 mm 3 mps 739 mmHg 77%
    05:00 +16°C° 0.1 mm 3 mps 739 mmHg 79%
    06:00 +16°C° 0 mm 3 mps 739 mmHg 77%
    07:00 +17°C° 0 mm 3 mps 740 mmHg 75%
    08:00 +17°C° 0 mm 3 mps 740 mmHg 74%
    09:00 +19°C° 0 mm 3 mps 741 mmHg 65%
    10:00 +21°C° 0 mm 3 mps 741 mmHg 56%
    11:00 +24°C° 0 mm 3 mps 741 mmHg 47%
    12:00 +24°C° 0 mm 3 mps 741 mmHg 45%
    13:00 +25°C° 0 mm 3 mps 740 mmHg 43%
    14:00 +25°C° 0 mm 2 mps 739 mmHg 40%
    15:00 +24°C° 0 mm 2 mps 739 mmHg 43%
    16:00 +23°C° 0 mm 1 mps 739 mmHg 46%
    17:00 +22°C° 0 mm 1 mps 739 mmHg 49%
    18:00 +21°C° 0 mm 1 mps 740 mmHg 51%
    19:00 +20°C° 0 mm 1 mps 740 mmHg 54%
    20:00 +19°C° 0 mm 2 mps 741 mmHg 57%
    21:00 +18°C° 0 mm 2 mps 741 mmHg 61%
    22:00 +17°C° 0 mm 2 mps 741 mmHg 65%
    23:00 +17°C° 0 mm 2 mps 741 mmHg 69%

    Day after tomorrow, 13 December, Wednesday

    Time Temperature Precipitation Wind Pressure Humidity
    00:00 +17°C° 0 mm 2 mps 740 mmHg 71%
    01:00 +16°C° 0 mm 2 mps 740 mmHg 73%
    02:00 +16°C° 0 mm 2 mps 740 mmHg 74%
    03:00 +16°C° 0 mm 2 mps 740 mmHg 73%
    04:00 +16°C° 0 mm 2 mps 740 mmHg 72%
    05:00 +16°C° 0 mm 2 mps 739 mmHg 71%
    06:00 +16°C° 0 mm 1 mps 740 mmHg 67%
    07:00 +18°C° 0 mm 1 mps 740 mmHg 64%
    08:00 +18°C° 0 mm 1 mps 741 mmHg 60%
    09:00 +20°C° 0 mm 1 mps 741 mmHg 53%
    10:00 +22°C° 0 mm 1 mps 741 mmHg 47%
    11:00 +24°C° 0 mm 1 mps 741 mmHg 41%
    12:00 +25°C° 0 mm 1 mps 740 mmHg 38%
    13:00 +25°C° 0 mm 2 mps 740 mmHg 34%
    14:00 +26°C° 0 mm 2 mps 739 mmHg 31%
    15:00 +25°C° 0 mm 1 mps 739 mmHg 34%
    16:00 +24°C° 0 mm 1 mps 739 mmHg 36%
    17:00 +22°C° 0 mm 1 mps 739 mmHg 38%
    18:00 +22°C° 0 mm 1 mps 739 mmHg 40%
    19:00 +21°C° 0 mm 1 mps 740 mmHg 42%
    20:00 +20°C° 0 mm 1 mps 740 mmHg 44%
    21:00 +19°C° 0 mm 2 mps 740 mmHg 47%
    22:00 +18°C° 0 mm 2 mps 741 mmHg 49%
    23:00 +18°C° 0 mm 2 mps 741 mmHg 52%

    14 December, Thursday

    Time Temperature Precipitation Wind Pressure Humidity
    00:00 +17°C° 0.1 mm 2 mps 741 mmHg 54%
    01:00 +16°C° 0.1 mm 1 mps 741 mmHg 56%
    02:00 +16°C° 0.1 mm 1 mps 741 mmHg 59%
    03:00 +16°C° 0.1 mm 1 mps 741 mmHg 60%
    04:00 +15°C° 0.1 mm 2 mps 741 mmHg 61%
    05:00 +15°C° 0.1 mm 2 mps 741 mmHg 62%
    06:00 +15°C° 0 mm 2 mps 742 mmHg 60%
    07:00 +16°C° 0 mm 2 mps 742 mmHg 58%
    08:00 +16°C° 0 mm 2 mps 743 mmHg 56%
    09:00 +18°C° 0 mm 2 mps 743 mmHg 49%
    10:00 +20°C° 0 mm 2 mps 744 mmHg 43%
    11:00 +23°C° 0 mm 2 mps 744 mmHg 36%
    12:00 +24°C° 0 mm 1 mps 743 mmHg 36%
    13:00 +25°C° 0 mm 1 mps 743 mmHg 35%
    14:00 +24°C° 0 mm 0 mps 742 mmHg 34%
    15:00 +24°C° 0 mm 1 mps 742 mmHg 37%
    16:00 +23°C° 0 mm 1 mps 742 mmHg 39%
    17:00 +21°C° 0 mm 2 mps 742 mmHg 42%
    18:00 +20°C° 0 mm 2 mps 742 mmHg 44%
    19:00 +19°C° 0 mm 2 mps 742 mmHg 45%
    20:00 +18°C° 0 mm 2 mps 743 mmHg 47%
    21:00 +18°C° 0 mm 2 mps 743 mmHg 49%
    22:00 +17°C° 0 mm 2 mps 743 mmHg 50%
    23:00 +17°C° 0 mm 2 mps 743 mmHg 51%

    15 December, Friday

    Time Temperature Precipitation Wind Pressure Humidity
    00:00 +16°C° 0 mm 2 mps 743 mmHg 53%
    01:00 +16°C° 0 mm 2 mps 742 mmHg 54%
    02:00 +16°C° 0 mm 2 mps 742 mmHg 55%
    03:00 +15°C° 0 mm 2 mps 742 mmHg 55%
    04:00 +15°C° 0 mm 2 mps 742 mmHg 55%
    05:00 +15°C° 0 mm 2 mps 742 mmHg 56%
    06:00 +15°C° 0 mm 2 mps 742 mmHg 53%
    07:00 +15°C° 0 mm 2 mps 743 mmHg 51%
    08:00 +16°C° 0 mm 2 mps 743 mmHg 49%
    09:00 +18°C° 0 mm 3 mps 743 mmHg 43%
    10:00 +20°C° 0 mm 3 mps 743 mmHg 37%
    11:00 +22°C° 0 mm 3 mps 744 mmHg 31%
    12:00 +24°C° 0 mm 3 mps 743 mmHg 30%
    13:00 +23°C° 0 mm 4 mps 742 mmHg 28%
    14:00 +25°C° 0 mm 4 mps 742 mmHg 26%
    15:00 +22°C° 0 mm 4 mps 742 mmHg 29%
    16:00 +21°C° 0 mm 3 mps 742 mmHg 32%
    17:00 +19°C° 0 mm 3 mps 742 mmHg 35%
    18:00 +19°C° 0 mm 3 mps 742 mmHg 37%
    19:00 +18°C° 0 mm 3 mps 743 mmHg 38%
    20:00 +17°C° 0 mm 3 mps 743 mmHg 39%
    21:00 +16°C° 0 mm 3 mps 743 mmHg 40%
    22:00 +16°C° 0 mm 3 mps 743 mmHg 41%
    23:00 +14°C° 0 mm 3 mps 743 mmHg 41%

    16 December, Saturday

    Time Temperature Precipitation Wind Pressure Humidity
    00:00 +14°C° 0 mm 3 mps 743 mmHg 41%
    01:00 +13°C° 0 mm 3 mps 742 mmHg 40%
    02:00 +13°C° 0 mm 3 mps 742 mmHg 40%
    03:00 +12°C° 0 mm 3 mps 742 mmHg 40%
    04:00 +12°C° 0 mm 3 mps 742 mmHg 40%
    05:00 +11°C° 0 mm 3 mps 742 mmHg 40%
    06:00 +12°C° 0 mm 3 mps 742 mmHg 40%
    07:00 +12°C° 0 mm 3 mps 743 mmHg 40%
    08:00 +13°C° 0 mm 3 mps 743 mmHg 40%
    09:00 +16°C° 0 mm 3 mps 743 mmHg 35%
    10:00 +18°C° 0 mm 3 mps 743 mmHg 31%
    11:00 +20°C° 0 mm 4 mps 744 mmHg 26%
    12:00 +21°C° 0 mm 4 mps 743 mmHg 25%
    13:00 +22°C° 0 mm 4 mps 742 mmHg 23%
    14:00 +23°C° 0 mm 4 mps 742 mmHg 21%
    15:00 +22°C° 0 mm 4 mps 742 mmHg 24%
    16:00 +20°C° 0 mm 3 mps 742 mmHg 27%
    17:00 +18°C° 0 mm 3 mps 742 mmHg 29%
    18:00 +18°C° 0 mm 3 mps 742 mmHg 31%
    19:00 +17°C° 0 mm 3 mps 742 mmHg 32%
    20:00 +16°C° 0 mm 3 mps 743 mmHg 33%
    21:00 +14°C° 0 mm 3 mps 743 mmHg 34%
    22:00 +14°C° 0 mm 3 mps 743 mmHg 35%
    23:00 +14°C° 0 mm 3 mps 743 mmHg 36%
    Show more